Weather History for KSGF - February, 2014

Change the Weather History Date:

Sunday, February 23, 2014

  Actual Average Record
Temperature  
Mean Temperature 39 °F 40 °F  
Max Temperature 48 °F 51 °F 79 °F (1982)
Min Temperature 29 °F 29 °F 3 °F (1899)
Degree Days  
Heating Degree Days 26 25  
Month to date heating degree days 758 657  
Since 1 July heating degree days 3787 3470  
Cooling Degree Days 0 0  
Month to date cooling degree days 0 0  
Year to date cooling degree days 0 0  
Moisture  
Dew Point 20 °F    
Average Humidity 54    
Maximum Humidity 82    
Minimum Humidity 26    
Precipitation  
Precipitation 0.00 in 0.11 in 2.17 in (1985)
Month to date precipitation 0.50 2.02  
Year to date precipitation 1.79 4.49  
Snow  
Snow 0.00 in - - ()
Month to date snowfall 4.3  
Since 1 July snowfall 27.3  
Snow Depth 0.00 in    
Sea Level Pressure  
Sea Level Pressure 30.13 in    
Wind  
Wind Speed 14 mph (NE)    
Max Wind Speed 24 mph    
Max Gust Speed 31 mph    
Visibility 10 miles    
Events      
T = Trace of Precipitation, MM = Missing Value Source: NWS Daily Summary

Daily Weather History Graph

Daily Weather History Graph

Search for Another Location

Airport or City:

Trip Planner

Search our weather history database for the weather conditions in past years. The results will help you decide how hot, cold, wet, or windy it might be!

Date:

Astronomy

Feb. 23, 2014 Rise Set
Actual Time 6:52 AM CST 6:01 PM CST
Civil Twilight 6:26 AM CST 6:28 PM CST
Nautical Twilight 5:56 AM CST 6:58 PM CST
Astronomical Twilight 5:25 AM CST 7:28 PM CST
Moon 1:47 AM CST (2/23) 12:08 PM CST (2/23)
Length of Visible Light 12h 01m
Length of Day
11h 09m
Last Quarter, 38% of the Moon is Illuminated
Feb 23
Last Quarter
Mar 1
New
Mar 8
First Quarter
Mar 16
Full
Mar 23
Last Quarter

Hourly Weather History & Observations

Time (CST) Temp. Windchill Dew Point Humidity Pressure Visibility Wind Dir Wind Speed Gust Speed Precip Events Conditions
12:52 AM 41.0 °F 35.8 °F 30.9 °F 67% 29.91 in 10.0 mi ENE 8.1 mph - N/A   Clear
1:52 AM 37.9 °F 32.7 °F 30.9 °F 76% 29.93 in 10.0 mi North 6.9 mph - N/A   Clear
2:52 AM 37.0 °F 28.5 °F 32.0 °F 82% 29.96 in 10.0 mi North 13.8 mph - N/A   Clear
3:20 AM 36.0 °F 26.0 °F 30.9 °F 82% 29.99 in 10.0 mi NNE 17.3 mph - N/A   Mostly Cloudy
3:52 AM 35.1 °F 24.1 °F 30.0 °F 82% 29.97 in 10.0 mi NE 19.6 mph - N/A   Overcast
4:52 AM 34.0 °F 22.7 °F 28.9 °F 82% 30.01 in 10.0 mi NNE 19.6 mph - N/A   Overcast
5:52 AM 33.1 °F 21.5 °F 26.1 °F 75% 30.06 in 10.0 mi NNE 19.6 mph - N/A   Overcast
6:15 AM 33.1 °F 21.5 °F 25.0 °F 72% 30.07 in 10.0 mi NE 19.6 mph - N/A   Overcast
6:52 AM 32.0 °F 20.1 °F 23.0 °F 69% 30.09 in 10.0 mi NE 19.6 mph 25.3 mph N/A   Mostly Cloudy
7:04 AM 32.0 °F 21.2 °F 21.9 °F 66% 30.07 in 10.0 mi NE 16.1 mph - N/A   Scattered Clouds
7:44 AM 32.0 °F 20.8 °F 19.9 °F 61% 30.08 in 10.0 mi NE 17.3 mph 26.5 mph N/A   Mostly Cloudy
7:52 AM 32.0 °F 21.6 °F 19.9 °F 61% 30.10 in 10.0 mi NE 15.0 mph - N/A   Scattered Clouds
8:52 AM 34.0 °F 23.4 °F 15.1 °F 46% 30.13 in 10.0 mi ENE 17.3 mph 26.5 mph N/A   Partly Cloudy
9:52 AM 37.0 °F 28.1 °F 15.1 °F 41% 30.16 in 10.0 mi NE 15.0 mph - N/A   Partly Cloudy
10:52 AM 39.9 °F 31.4 °F 17.1 °F 40% 30.17 in 10.0 mi NE 16.1 mph 20.7 mph N/A   Overcast
11:52 AM 44.1 °F 37.1 °F 18.0 °F 35% 30.15 in 10.0 mi NNE 15.0 mph - N/A   Mostly Cloudy
12:52 PM 46.0 °F 39.6 °F 16.0 °F 30% 30.15 in 10.0 mi NE 15.0 mph - N/A   Clear
1:52 PM 48.0 °F - 17.1 °F 29% 30.14 in 10.0 mi NNE 15.0 mph - N/A   Clear
2:52 PM 48.0 °F - 16.0 °F 28% 30.15 in 10.0 mi North 12.7 mph - N/A   Clear
3:52 PM 46.0 °F 39.0 °F 14.0 °F 28% 30.18 in 10.0 mi NNE 17.3 mph - N/A   Clear
4:52 PM 44.1 °F 37.4 °F 17.1 °F 34% 30.19 in 10.0 mi NNE 13.8 mph - N/A   Clear
5:52 PM 41.0 °F 34.3 °F 17.1 °F 38% 30.22 in 10.0 mi NNE 11.5 mph 17.3 mph N/A   Clear
6:52 PM 36.0 °F 29.6 °F 18.0 °F 48% 30.25 in 10.0 mi NNE 8.1 mph - N/A   Clear
7:52 PM 35.1 °F 25.5 °F 19.9 °F 54% 30.26 in 10.0 mi NNE 15.0 mph - N/A   Clear
8:52 PM 33.1 °F 24.9 °F 15.1 °F 48% 30.27 in 10.0 mi NE 10.4 mph - N/A   Clear
9:52 PM 32.0 °F 23.6 °F 15.1 °F 50% 30.29 in 10.0 mi NE 10.4 mph - N/A   Clear
10:52 PM 30.0 °F 20.5 °F 14.0 °F 51% 30.30 in 10.0 mi NE 11.5 mph - N/A   Clear
11:52 PM 28.9 °F 19.8 °F 14.0 °F 54% 30.28 in 10.0 mi NE 10.4 mph - N/A   Clear